TimeEDT,TemperatureF,Dew PointF,Humidity,Sea Level PressureIn,VisibilityMPH,Wind Direction,Wind SpeedMPH,Gust SpeedMPH,PrecipitationIn,Events,Conditions,WindDirDegrees,DateUTC
12:15 AM,78.8,69.8,74,30.03,10.0,East,3.5,-,N/A,,Clear,80,2013-08-28 04:15:00
12:35 AM,78.8,69.8,74,30.04,10.0,East,4.6,-,N/A,,Clear,90,2013-08-28 04:35:00
12:55 AM,78.8,69.8,74,30.03,10.0,East,3.5,-,N/A,,Scattered Clouds,80,2013-08-28 04:55:00
1:15 AM,80.6,69.8,70,30.02,10.0,East,4.6,-,N/A,,Scattered Clouds,90,2013-08-28 05:15:00
1:35 AM,80.6,69.8,70,30.02,10.0,East,4.6,-,N/A,,Clear,90,2013-08-28 05:35:00
1:55 AM,80.6,69.8,70,30.02,10.0,ESE,4.6,-,N/A,,Clear,110,2013-08-28 05:55:00
2:15 AM,78.8,69.8,74,30.01,10.0,SE,5.8,-,N/A,,Clear,140,2013-08-28 06:15:00
2:35 AM,78.8,69.8,74,30.01,10.0,Calm,Calm,-,N/A,,Clear,0,2013-08-28 06:35:00
2:55 AM,77.0,69.8,78,30.00,10.0,Calm,Calm,-,N/A,,Scattered Clouds,0,2013-08-28 06:55:00
3:15 AM,77.0,69.8,78,30.00,10.0,Calm,Calm,-,N/A,,Clear,0,2013-08-28 07:15:00
3:35 AM,77.0,69.8,78,30.00,10.0,Calm,Calm,-,N/A,,Scattered Clouds,0,2013-08-28 07:35:00
3:55 AM,77.0,69.8,78,29.99,10.0,Calm,Calm,-,N/A,,Scattered Clouds,0,2013-08-28 07:55:00
4:15 AM,77.0,69.8,78,29.99,10.0,Calm,Calm,-,N/A,,Clear,0,2013-08-28 08:15:00
4:35 AM,75.2,69.8,83,29.99,10.0,NNW,3.5,-,N/A,,Clear,330,2013-08-28 08:35:00
4:55 AM,77.0,69.8,78,29.99,10.0,Calm,Calm,-,N/A,,Clear,0,2013-08-28 08:55:00
5:15 AM,75.2,69.8,83,29.99,10.0,Calm,Calm,-,N/A,,Scattered Clouds,0,2013-08-28 09:15:00
5:35 AM,77.0,71.6,83,30.00,10.0,Calm,Calm,-,N/A,,Scattered Clouds,0,2013-08-28 09:35:00
5:55 AM,75.2,69.8,83,30.00,10.0,Calm,Calm,-,N/A,,Scattered Clouds,0,2013-08-28 09:55:00
6:15 AM,75.2,69.8,83,30.00,10.0,Calm,Calm,-,N/A,,Clear,0,2013-08-28 10:15:00
6:47 AM,75.2,69.8,83,30.01,7.0,Calm,Calm,-,N/A,,Scattered Clouds,0,2013-08-28 10:47:00
7:47 AM,77.0,71.6,83,30.02,10.0,Calm,Calm,-,N/A,,Mostly Cloudy,0,2013-08-28 11:47:00
8:47 AM,82.4,71.6,70,30.03,10.0,Calm,Calm,-,N/A,,Mostly Cloudy,0,2013-08-28 12:47:00
9:47 AM,86.0,69.8,58,30.05,10.0,East,6.9,-,N/A,,Mostly Cloudy,90,2013-08-28 13:47:00
10:47 AM,86.0,69.8,58,30.07,7.0,East,6.9,-,N/A,,Mostly Cloudy,90,2013-08-28 14:47:00
11:47 AM,80.6,64.4,58,30.07,7.0,South,10.4,-,N/A,Rain,Light Rain,190,2013-08-28 15:47:00
12:47 PM,86.0,69.8,58,30.05,7.0,East,11.5,-,N/A,,Mostly Cloudy,100,2013-08-28 16:47:00
1:55 PM,84.2,68.0,58,30.04,7.0,East,4.6,-,N/A,,Mostly Cloudy,90,2013-08-28 17:55:00
3:47 PM,82.4,68.0,62,30.02,7.0,East,4.6,-,N/A,,Mostly Cloudy,90,2013-08-28 19:47:00
4:47 PM,86.0,64.4,48,30.00,7.0,SE,8.1,-,N/A,,Scattered Clouds,140,2013-08-28 20:47:00
5:55 PM,86.0,62.6,45,29.99,10.0,ESE,9.2,-,N/A,,Mostly Cloudy,120,2013-08-28 21:55:00
6:47 PM,84.2,66.2,55,30.00,10.0,ESE,4.6,-,N/A,,Mostly Cloudy,110,2013-08-28 22:47:00
8:15 PM,80.6,69.8,70,30.02,10.0,East,4.6,-,N/A,,Scattered Clouds,100,2013-08-29 00:15:00
8:35 PM,80.6,71.6,74,30.02,10.0,ESE,5.8,-,N/A,,Clear,110,2013-08-29 00:35:00
8:55 PM,80.6,69.8,70,30.03,10.0,East,3.5,-,N/A,,Scattered Clouds,100,2013-08-29 00:55:00
9:15 PM,80.6,69.8,70,30.04,10.0,Calm,Calm,-,N/A,,Mostly Cloudy,0,2013-08-29 01:15:00
9:35 PM,80.6,69.8,70,30.04,10.0,Calm,Calm,-,N/A,,Mostly Cloudy,0,2013-08-29 01:35:00
9:55 PM,80.6,69.8,70,30.04,10.0,Calm,Calm,-,N/A,,Mostly Cloudy,0,2013-08-29 01:55:00
10:15 PM,80.6,69.8,70,30.04,10.0,Calm,Calm,-,N/A,,Overcast,0,2013-08-29 02:15:00
10:35 PM,80.6,69.8,70,30.05,10.0,Calm,Calm,-,N/A,,Scattered Clouds,0,2013-08-29 02:35:00
10:55 PM,78.8,69.8,74,30.05,10.0,West,6.9,-,N/A,,Clear,260,2013-08-29 02:55:00
11:15 PM,77.0,68.0,74,30.06,10.0,SSW,6.9,-,N/A,,Scattered Clouds,200,2013-08-29 03:15:00
11:35 PM,77.0,69.8,78,30.06,7.0,SSE,8.1,-,0.02,,Mostly Cloudy,160,2013-08-29 03:35:00
11:55 PM,75.2,69.8,83,30.05,10.0,Calm,Calm,-,0.02,,Scattered Clouds,0,2013-08-29 03:55:00